owner,sensor,date,latitude,longitude,vertical_datum,direction_of_sea_water_velocity,sea_water_speed,upward_sea_water_velocity,qcFlag 
TABS,ioos:station:wmo:42050:1,1996-04-01T00:00:00Z,28.8425,-94.2433,2.0,198.4521794,10.36278437,-99999.0,'11111222,11111222,99999999' 
TABS,ioos:station:wmo:42050:1,1996-04-01T00:30:00Z,28.8425,-94.2433,2.0,191.1246157,8.499717642,-99999.0,'11133222,11111222,99999999' 
TABS,ioos:station:wmo:42050:1,1996-04-01T01:00:00Z,28.8425,-94.2433,2.0,201.801148,7.216120842,-99999.0,'11133222,11111222,99999999' 
TABS,ioos:station:wmo:42050:1,1996-04-01T01:30:00Z,28.8425,-94.2433,2.0,206.5647786,5.99266218,-99999.0,'11133222,11111222,99999999' 
TABS,ioos:station:wmo:42050:1,1996-04-01T02:00:00Z,28.8425,-94.2433,2.0,179.9997895,5.66,-99999.0,'11133222,11111222,99999999' 
TABS,ioos:station:wmo:42050:1,1996-04-01T02:30:00Z,28.8425,-94.2433,2.0,207.2550542,5.196999134,-99999.0,'11133222,11111222,99999999' 
TABS,ioos:station:wmo:42050:1,1996-04-01T03:00:00Z,28.8425,-94.2433,2.0,246.0569854,2.932319901,-99999.0,'11133222,11111222,99999999' 
TABS,ioos:station:wmo:42050:1,1996-04-01T03:30:00Z,28.8425,-94.2433,2.0,236.2602826,3.222809333,-99999.0,'11133222,11111222,99999999' 
TABS,ioos:station:wmo:42050:1,1996-04-01T04:00:00Z,28.8425,-94.2433,2.0,279.5670845,0.902551938,-99999.0,'11133222,11111222,99999999' 
TABS,ioos:station:wmo:42050:1,1996-04-01T04:30:00Z,28.8425,-94.2433,2.0,266.6065759,2.53444274,-99999.0,'11133222,11111222,99999999' 
TABS,ioos:station:wmo:42050:1,1996-04-01T05:00:00Z,28.8425,-94.2433,2.0,285.0596594,2.309307255,-99999.0,'11133222,11111222,99999999' 
TABS,ioos:station:wmo:42050:1,1996-04-01T05:30:00Z,28.8425,-94.2433,2.0,278.1688804,2.111421322,-99999.0,'11133222,11111222,99999999' 
TABS,ioos:station:wmo:42050:1,1996-04-01T06:00:00Z,28.8425,-94.2433,2.0,270.0004209,0.6,-99999.0,'11133222,11111222,99999999' 
TABS,ioos:station:wmo:42050:1,1996-04-01T06:30:00Z,28.8425,-94.2433,2.0,216.8183526,2.236000894,-99999.0,'11133222,11111222,99999999' 
TABS,ioos:station:wmo:42050:1,1996-04-01T07:00:00Z,28.8425,-94.2433,2.0,183.3927927,2.53444274,-99999.0,'11133222,11111222,99999999' 
TABS,ioos:station:wmo:42050:1,1996-04-01T07:30:00Z,28.8425,-94.2433,2.0,212.6102142,4.416197459,-99999.0,'11133222,11111222,99999999' 
TABS,ioos:station:wmo:42050:1,1996-04-01T08:00:00Z,28.8425,-94.2433,2.0,202.2756353,6.278574679,-99999.0,'11133222,11111222,99999999' 
TABS,ioos:station:wmo:42050:1,1996-04-01T08:30:00Z,28.8425,-94.2433,2.0,202.0604026,11.90133606,-99999.0,'11111222,11111222,99999999' 
TABS,ioos:station:wmo:42050:1,1996-04-01T09:00:00Z,28.8425,-94.2433,2.0,202.5643532,14.35923744,-99999.0,'11111222,11111222,99999999' 
TABS,ioos:station:wmo:42050:1,1996-04-01T09:30:00Z,28.8425,-94.2433,2.0,204.4167948,15.86934466,-99999.0,'11111222,11111222,99999999' 
TABS,ioos:station:wmo:42050:1,1996-04-01T10:00:00Z,28.8425,-94.2433,2.0,208.1348544,14.52647927,-99999.0,'11111222,11111222,99999999' 
TABS,ioos:station:wmo:42050:1,1996-04-01T10:30:00Z,28.8425,-94.2433,2.0,220.1351812,17.34416328,-99999.0,'11111222,11111222,99999999' 
TABS,ioos:station:wmo:42050:1,1996-04-01T11:00:00Z,28.8425,-94.2433,2.0,206.0670159,14.92855318,-99999.0,'11111222,11111222,99999999' 
TABS,ioos:station:wmo:42050:1,1996-04-01T11:30:00Z,28.8425,-94.2433,2.0,207.1246531,13.73011289,-99999.0,'11111222,11111222,99999999' 
TABS,ioos:station:wmo:42050:1,1996-04-01T12:00:00Z,28.8425,-94.2433,2.0,218.2997084,14.42449306,-99999.0,'11111222,11111222,99999999' 
TABS,ioos:station:wmo:42050:1,1996-04-01T12:30:00Z,28.8425,-94.2433,2.0,242.7534321,16.92823086,-99999.0,'11111222,11111222,99999999' 
TABS,ioos:station:wmo:42050:1,1996-04-01T13:00:00Z,28.8425,-94.2433,2.0,244.7085764,11.86751027,-99999.0,'11111222,11111222,99999999' 
TABS,ioos:station:wmo:42050:1,1996-04-01T13:30:00Z,28.8425,-94.2433,2.0,248.1899337,12.83897582,-99999.0,'11111222,11111222,99999999' 
TABS,ioos:station:wmo:42050:1,1996-04-01T14:00:00Z,28.8425,-94.2433,2.0,254.6144267,12.3630417,-99999.0,'11111222,11111222,99999999' 
TABS,ioos:station:wmo:42050:1,1996-04-01T14:30:00Z,28.8425,-94.2433,2.0,271.2022512,14.30314651,-99999.0,'11111222,11111222,99999999' 
TABS,ioos:station:wmo:42050:1,1996-04-01T15:00:00Z,28.8425,-94.2433,2.0,275.3149542,11.2282679,-99999.0,'11111222,11111222,99999999' 
TABS,ioos:station:wmo:42050:1,1996-04-01T15:30:00Z,28.8425,-94.2433,2.0,281.5755827,11.86123096,-99999.0,'11111222,11111222,99999999' 
TABS,ioos:station:wmo:42050:1,1996-04-01T16:00:00Z,28.8425,-94.2433,2.0,277.1307995,13.21217999,-99999.0,'11111222,11111222,99999999' 
TABS,ioos:station:wmo:42050:1,1996-04-01T16:30:00Z,28.8425,-94.2433,2.0,275.4638986,14.0739369,-99999.0,'11111222,11111222,99999999' 
TABS,ioos:station:wmo:42050:1,1996-04-01T17:00:00Z,28.8425,-94.2433,2.0,278.0652349,14.89733533,-99999.0,'11111222,11111222,99999999' 
TABS,ioos:station:wmo:42050:1,1996-04-01T17:30:00Z,28.8425,-94.2433,2.0,275.5226635,13.92462567,-99999.0,'11111222,11111222,99999999' 
TABS,ioos:station:wmo:42050:1,1996-04-01T18:00:00Z,28.8425,-94.2433,2.0,269.4981714,17.14065635,-99999.0,'11111222,11111222,99999999' 
TABS,ioos:station:wmo:42050:1,1996-04-01T18:30:00Z,28.8425,-94.2433,2.0,262.3530153,14.57964677,-99999.0,'11111222,11111222,99999999' 
TABS,ioos:station:wmo:42050:1,1996-04-01T19:00:00Z,28.8425,-94.2433,2.0,251.8868677,16.30812374,-99999.0,'11111222,11111222,99999999' 
TABS,ioos:station:wmo:42050:1,1996-04-01T19:30:00Z,28.8425,-94.2433,2.0,239.3017798,16.63039687,-99999.0,'11111222,11111222,99999999' 
TABS,ioos:station:wmo:42050:1,1996-04-01T20:00:00Z,28.8425,-94.2433,2.0,232.4428178,17.8492829,-99999.0,'11111222,11111222,99999999' 
TABS,ioos:station:wmo:42050:1,1996-04-01T20:30:00Z,28.8425,-94.2433,2.0,224.7007532,20.32959665,-99999.0,'11111222,11111222,99999999' 
TABS,ioos:station:wmo:42050:1,1996-04-01T21:00:00Z,28.8425,-94.2433,2.0,218.9436479,22.98906044,-99999.0,'11111222,11111222,99999999' 
TABS,ioos:station:wmo:42050:1,1996-04-01T21:30:00Z,28.8425,-94.2433,2.0,215.4972369,24.88513814,-99999.0,'11111222,11111222,99999999' 
TABS,ioos:station:wmo:42050:1,1996-04-01T22:00:00Z,28.8425,-94.2433,2.0,216.7943852,24.376021,-99999.0,'11111222,11111222,99999999' 
TABS,ioos:station:wmo:42050:1,1996-04-01T22:30:00Z,28.8425,-94.2433,2.0,218.9719761,26.05954144,-99999.0,'11111222,11111222,99999999' 
TABS,ioos:station:wmo:42050:1,1996-04-01T23:00:00Z,28.8425,-94.2433,2.0,219.9828333,26.44102305,-99999.0,'11111222,11111222,99999999' 
TABS,ioos:station:wmo:42050:1,1996-04-01T23:30:00Z,28.8425,-94.2433,2.0,224.0984113,26.97238959,-99999.0,'11111222,11111222,99999999' 
TABS,ioos:station:wmo:42050:1,1996-04-02T00:00:00Z,28.8425,-94.2433,2.0,227.9637484,24.47742838,-99999.0,'11111222,11111222,99999999' 
TABS,ioos:station:wmo:42050:1,1996-04-02T00:30:00Z,28.8425,-94.2433,2.0,228.9206124,24.71466164,-99999.0,'11111222,11111222,99999999' 
TABS,ioos:station:wmo:42050:1,1996-04-02T01:00:00Z,28.8425,-94.2433,2.0,225.2560007,23.70952762,-99999.0,'11111222,11111222,99999999' 
TABS,ioos:station:wmo:42050:1,1996-04-02T01:30:00Z,28.8425,-94.2433,2.0,237.2894002,19.30084195,-99999.0,'11111222,11111222,99999999' 
TABS,ioos:station:wmo:42050:1,1996-04-02T02:00:00Z,28.8425,-94.2433,2.0,246.2911086,17.40929637,-99999.0,'11111222,11111222,99999999' 
TABS,ioos:station:wmo:42050:1,1996-04-02T02:30:00Z,28.8425,-94.2433,2.0,254.575513,19.62688972,-99999.0,'11111222,11111222,99999999' 
TABS,ioos:station:wmo:42050:1,1996-04-02T03:00:00Z,28.8425,-94.2433,2.0,263.7451543,19.1841862,-99999.0,'11111222,11111222,99999999' 
TABS,ioos:station:wmo:42050:1,1996-04-02T03:30:00Z,28.8425,-94.2433,2.0,272.2704657,18.93485939,-99999.0,'11111222,11111222,99999999' 
TABS,ioos:station:wmo:42050:1,1996-04-02T04:00:00Z,28.8425,-94.2433,2.0,273.1955733,18.65900587,-99999.0,'11111222,11111222,99999999' 
TABS,ioos:station:wmo:42050:1,1996-04-02T04:30:00Z,28.8425,-94.2433,2.0,275.3907624,20.65132441,-99999.0,'11111222,11111222,99999999' 
TABS,ioos:station:wmo:42050:1,1996-04-02T05:00:00Z,28.8425,-94.2433,2.0,276.6701447,19.19994271,-99999.0,'11111222,11111222,99999999' 
TABS,ioos:station:wmo:42050:1,1996-04-02T05:30:00Z,28.8425,-94.2433,2.0,274.1530987,16.43314334,-99999.0,'11111222,11111222,99999999' 
TABS,ioos:station:wmo:42050:1,1996-04-02T06:00:00Z,28.8425,-94.2433,2.0,272.1899272,11.77859924,-99999.0,'11111222,11111222,99999999' 
TABS,ioos:station:wmo:42050:1,1996-04-02T06:30:00Z,28.8425,-94.2433,2.0,264.1378386,10.18324604,-99999.0,'11111222,11111222,99999999' 
TABS,ioos:station:wmo:42050:1,1996-04-02T07:00:00Z,28.8425,-94.2433,2.0,262.0040713,9.63364936,-99999.0,'11133222,11111222,99999999' 
TABS,ioos:station:wmo:42050:1,1996-04-02T07:30:00Z,28.8425,-94.2433,2.0,263.3203786,7.651934396,-99999.0,'11133222,11111222,99999999' 
TABS,ioos:station:wmo:42050:1,1996-04-02T08:00:00Z,28.8425,-94.2433,2.0,243.0139688,8.528593084,-99999.0,'11133222,11111222,99999999' 
TABS,ioos:station:wmo:42050:1,1996-04-02T08:30:00Z,28.8425,-94.2433,2.0,241.9657927,10.46823767,-99999.0,'11111222,11111222,99999999' 
TABS,ioos:station:wmo:42050:1,1996-04-02T09:00:00Z,28.8425,-94.2433,2.0,224.0384382,12.64484875,-99999.0,'11111222,11111222,99999999' 
TABS,ioos:station:wmo:42050:1,1996-04-02T09:30:00Z,28.8425,-94.2433,2.0,224.0696419,13.06905505,-99999.0,'11111222,11111222,99999999' 
TABS,ioos:station:wmo:42050:1,1996-04-02T10:00:00Z,28.8425,-94.2433,2.0,222.2431339,15.29120008,-99999.0,'11111222,11111222,99999999' 
TABS,ioos:station:wmo:42050:1,1996-04-02T10:30:00Z,28.8425,-94.2433,2.0,215.7276463,15.05298974,-99999.0,'11111222,11111222,99999999' 
TABS,ioos:station:wmo:42050:1,1996-04-02T11:00:00Z,28.8425,-94.2433,2.0,219.4376949,17.3634386,-99999.0,'11111222,11111222,99999999' 
TABS,ioos:station:wmo:42050:1,1996-04-02T11:30:00Z,28.8425,-94.2433,2.0,226.9655822,18.55125872,-99999.0,'11111222,11111222,99999999' 
TABS,ioos:station:wmo:42050:1,1996-04-02T12:00:00Z,28.8425,-94.2433,2.0,225.6627987,18.32943534,-99999.0,'11111222,11111222,99999999' 
TABS,ioos:station:wmo:42050:1,1996-04-02T12:30:00Z,28.8425,-94.2433,2.0,224.3796258,19.60214784,-99999.0,'11111222,11111222,99999999' 
TABS,ioos:station:wmo:42050:1,1996-04-02T13:00:00Z,28.8425,-94.2433,2.0,236.8380657,17.44051605,-99999.0,'11111222,11111222,99999999' 
TABS,ioos:station:wmo:42050:1,1996-04-02T13:30:00Z,28.8425,-94.2433,2.0,241.683157,17.26603892,-99999.0,'11111222,11111222,99999999' 
TABS,ioos:station:wmo:42050:1,1996-04-02T14:00:00Z,28.8425,-94.2433,2.0,241.165636,15.13663107,-99999.0,'11111222,11111222,99999999' 
TABS,ioos:station:wmo:42050:1,1996-04-02T14:30:00Z,28.8425,-94.2433,2.0,251.1967139,15.26462905,-99999.0,'11111222,11111222,99999999' 
TABS,ioos:station:wmo:42050:1,1996-04-02T15:00:00Z,28.8425,-94.2433,2.0,252.6410324,14.98235295,-99999.0,'11111222,11111222,99999999' 
TABS,ioos:station:wmo:42050:1,1996-04-02T15:30:00Z,28.8425,-94.2433,2.0,262.864717,14.41159603,-99999.0,'11111222,11111222,99999999' 
TABS,ioos:station:wmo:42050:1,1996-04-02T16:00:00Z,28.8425,-94.2433,2.0,267.6936178,14.91207564,-99999.0,'11111222,11111222,99999999' 
TABS,ioos:station:wmo:42050:1,1996-04-02T16:30:00Z,28.8425,-94.2433,2.0,273.1372538,16.26436903,-99999.0,'11111222,11111222,99999999' 
TABS,ioos:station:wmo:42050:1,1996-04-02T17:00:00Z,28.8425,-94.2433,2.0,276.6517616,15.45401566,-99999.0,'11111222,11111222,99999999' 
TABS,ioos:station:wmo:42050:1,1996-04-02T17:30:00Z,28.8425,-94.2433,2.0,273.5032587,17.02180073,-99999.0,'11111222,11111222,99999999' 
TABS,ioos:station:wmo:42050:1,1996-04-02T18:00:00Z,28.8425,-94.2433,2.0,274.5731091,18.68948902,-99999.0,'11111222,11111222,99999999' 
TABS,ioos:station:wmo:42050:1,1996-04-02T18:30:00Z,28.8425,-94.2433,2.0,267.7649306,19.23462763,-99999.0,'11111222,11111222,99999999' 
TABS,ioos:station:wmo:42050:1,1996-04-02T19:00:00Z,28.8425,-94.2433,2.0,267.7992406,19.53440299,-99999.0,'11111222,11111222,99999999' 
TABS,ioos:station:wmo:42050:1,1996-04-02T19:30:00Z,28.8425,-94.2433,2.0,263.2996031,20.39931371,-99999.0,'11111222,11111222,99999999' 
TABS,ioos:station:wmo:42050:1,1996-04-02T20:00:00Z,28.8425,-94.2433,2.0,264.4092358,19.91471818,-99999.0,'11111222,11111222,99999999' 
TABS,ioos:station:wmo:42050:1,1996-04-02T20:30:00Z,28.8425,-94.2433,2.0,264.0662357,20.21831348,-99999.0,'11111222,11111222,99999999' 
TABS,ioos:station:wmo:42050:1,1996-04-02T21:00:00Z,28.8425,-94.2433,2.0,258.4353504,18.55669152,-99999.0,'11111222,11111222,99999999' 
TABS,ioos:station:wmo:42050:1,1996-04-02T21:30:00Z,28.8425,-94.2433,2.0,257.1146672,16.05424866,-99999.0,'11111222,11111222,99999999' 
TABS,ioos:station:wmo:42050:1,1996-04-02T22:00:00Z,28.8425,-94.2433,2.0,251.7063052,16.63046903,-99999.0,'11111222,11111222,99999999' 
TABS,ioos:station:wmo:42050:1,1996-04-02T22:30:00Z,28.8425,-94.2433,2.0,248.8160203,17.73864989,-99999.0,'11111222,11111222,99999999' 
TABS,ioos:station:wmo:42050:1,1996-04-02T23:00:00Z,28.8425,-94.2433,2.0,241.2882774,17.67286338,-99999.0,'11111222,11111222,99999999' 
TABS,ioos:station:wmo:42050:1,1996-04-02T23:30:00Z,28.8425,-94.2433,2.0,237.6708877,17.27824065,-99999.0,'11111222,11111222,99999999' 
TABS,ioos:station:wmo:42050:1,1996-04-03T00:00:00Z,28.8425,-94.2433,2.0,235.6446456,17.68503322,-99999.0,'11111222,11111222,99999999' 
TABS,ioos:station:wmo:42050:1,1996-04-03T00:30:00Z,28.8425,-94.2433,2.0,243.6681308,16.45759703,-99999.0,'11111222,11111222,99999999' 
TABS,ioos:station:wmo:42050:1,1996-04-03T01:00:00Z,28.8425,-94.2433,2.0,248.8454949,16.93092437,-99999.0,'11111222,11111222,99999999' 
TABS,ioos:station:wmo:42050:1,1996-04-03T01:30:00Z,28.8425,-94.2433,2.0,257.3241711,16.95317079,-99999.0,'11111222,11111222,99999999' 
TABS,ioos:station:wmo:42050:1,1996-04-03T02:00:00Z,28.8425,-94.2433,2.0,262.6544648,15.17452141,-99999.0,'11111222,11111222,99999999' 
TABS,ioos:station:wmo:42050:1,1996-04-03T02:30:00Z,28.8425,-94.2433,2.0,267.2801705,15.80780187,-99999.0,'11111222,11111222,99999999' 
TABS,ioos:station:wmo:42050:1,1996-04-03T03:00:00Z,28.8425,-94.2433,2.0,275.6629799,16.62110706,-99999.0,'11111222,11111222,99999999' 
TABS,ioos:station:wmo:42050:1,1996-04-03T03:30:00Z,28.8425,-94.2433,2.0,277.5203059,13.67763503,-99999.0,'11111222,11111222,99999999' 
TABS,ioos:station:wmo:42050:1,1996-04-03T04:00:00Z,28.8425,-94.2433,2.0,290.4552586,11.93236355,-99999.0,'11111222,11111222,99999999' 
TABS,ioos:station:wmo:42050:1,1996-04-03T04:30:00Z,28.8425,-94.2433,2.0,295.3801519,9.728977336,-99999.0,'11133222,11111222,99999999' 
TABS,ioos:station:wmo:42050:1,1996-04-03T05:00:00Z,28.8425,-94.2433,2.0,288.4353266,8.949245778,-99999.0,'11133222,11111222,99999999' 
TABS,ioos:station:wmo:42050:1,1996-04-03T05:30:00Z,28.8425,-94.2433,2.0,292.9388467,9.544762962,-99999.0,'11133222,11111222,99999999' 
TABS,ioos:station:wmo:42050:1,1996-04-03T06:00:00Z,28.8425,-94.2433,2.0,298.6230511,7.473285757,-99999.0,'11133222,11111222,99999999' 
TABS,ioos:station:wmo:42050:1,1996-04-03T06:30:00Z,28.8425,-94.2433,2.0,283.7777953,7.516255717,-99999.0,'11133222,11111222,99999999' 
TABS,ioos:station:wmo:42050:1,1996-04-03T07:00:00Z,28.8425,-94.2433,2.0,276.9841758,8.553461288,-99999.0,'11133222,11111222,99999999' 
TABS,ioos:station:wmo:42050:1,1996-04-03T07:30:00Z,28.8425,-94.2433,2.0,281.5452814,6.695461149,-99999.0,'11133222,11111222,99999999' 
TABS,ioos:station:wmo:42050:1,1996-04-03T08:00:00Z,28.8425,-94.2433,2.0,271.3103065,6.561714715,-99999.0,'11133222,11111222,99999999' 
TABS,ioos:station:wmo:42050:1,1996-04-03T08:30:00Z,28.8425,-94.2433,2.0,298.6230511,3.736642878,-99999.0,'11133222,11111222,99999999' 
TABS,ioos:station:wmo:42050:1,1996-04-03T09:00:00Z,28.8425,-94.2433,2.0,240.6190399,2.731300057,-99999.0,'11133222,11111222,99999999' 
TABS,ioos:station:wmo:42050:1,1996-04-03T09:30:00Z,28.8425,-94.2433,2.0,217.4806355,3.1881813,-99999.0,'11133222,11111222,99999999' 
TABS,ioos:station:wmo:42050:1,1996-04-03T10:00:00Z,28.8425,-94.2433,2.0,220.2830046,6.449441836,-99999.0,'11133222,11111222,99999999' 
TABS,ioos:station:wmo:42050:1,1996-04-03T10:30:00Z,28.8425,-94.2433,2.0,212.4086749,9.179809366,-99999.0,'11133222,11111222,99999999' 
TABS,ioos:station:wmo:42050:1,1996-04-03T11:00:00Z,28.8425,-94.2433,2.0,203.231483,9.075902159,-99999.0,'11133222,11111222,99999999' 
TABS,ioos:station:wmo:42050:1,1996-04-03T11:30:00Z,28.8425,-94.2433,2.0,209.1195827,11.93905356,-99999.0,'11111222,11111222,99999999' 
TABS,ioos:station:wmo:42050:1,1996-04-03T12:00:00Z,28.8425,-94.2433,2.0,212.7562269,12.93732584,-99999.0,'11111222,11111222,99999999' 
TABS,ioos:station:wmo:42050:1,1996-04-03T12:30:00Z,28.8425,-94.2433,2.0,215.4545951,12.06767998,-99999.0,'11111222,11111222,99999999' 
TABS,ioos:station:wmo:42050:1,1996-04-03T13:00:00Z,28.8425,-94.2433,2.0,217.8561962,13.59001472,-99999.0,'11111222,11111222,99999999' 
TABS,ioos:station:wmo:42050:1,1996-04-03T13:30:00Z,28.8425,-94.2433,2.0,228.1657013,11.39474001,-99999.0,'11111222,11111222,99999999' 
TABS,ioos:station:wmo:42050:1,1996-04-03T14:00:00Z,28.8425,-94.2433,2.0,229.3095748,11.19687903,-99999.0,'11111222,11111222,99999999' 
TABS,ioos:station:wmo:42050:1,1996-04-03T14:30:00Z,28.8425,-94.2433,2.0,242.380188,10.93622421,-99999.0,'11111222,11111222,99999999' 
TABS,ioos:station:wmo:42050:1,1996-04-03T15:00:00Z,28.8425,-94.2433,2.0,254.5987059,8.961807853,-99999.0,'11133222,11111222,99999999' 
TABS,ioos:station:wmo:42050:1,1996-04-03T15:30:00Z,28.8425,-94.2433,2.0,263.9602479,9.884862164,-99999.0,'11133222,11111222,99999999' 
TABS,ioos:station:wmo:42050:1,1996-04-03T16:00:00Z,28.8425,-94.2433,2.0,270.0004209,10.28,-99999.0,'11111222,11111222,99999999' 
TABS,ioos:station:wmo:42050:1,1996-04-03T16:30:00Z,28.8425,-94.2433,2.0,281.740959,10.95927917,-99999.0,'11111222,11111222,99999999' 
TABS,ioos:station:wmo:42050:1,1996-04-03T17:00:00Z,28.8425,-94.2433,2.0,287.1297916,12.63025336,-99999.0,'11111222,11111222,99999999' 
TABS,ioos:station:wmo:42050:1,1996-04-03T17:30:00Z,28.8425,-94.2433,2.0,292.6259227,15.49230777,-99999.0,'11111222,11111222,99999999' 
TABS,ioos:station:wmo:42050:1,1996-04-03T18:00:00Z,28.8425,-94.2433,2.0,294.0101098,13.54167641,-99999.0,'11111222,11111222,99999999' 
TABS,ioos:station:wmo:42050:1,1996-04-03T18:30:00Z,28.8425,-94.2433,2.0,299.5052314,14.21326493,-99999.0,'11111222,11111222,99999999' 
TABS,ioos:station:wmo:42050:1,1996-04-03T19:00:00Z,28.8425,-94.2433,2.0,298.3345971,15.06486309,-99999.0,'11111222,11111222,99999999' 
TABS,ioos:station:wmo:42050:1,1996-04-03T19:30:00Z,28.8425,-94.2433,2.0,301.7684582,16.12588602,-99999.0,'11111222,11111222,99999999' 
TABS,ioos:station:wmo:42050:1,1996-04-03T20:00:00Z,28.8425,-94.2433,2.0,297.3208377,14.92481491,-99999.0,'11111222,11111222,99999999' 
TABS,ioos:station:wmo:42050:1,1996-04-03T20:30:00Z,28.8425,-94.2433,2.0,294.1471758,14.20273565,-99999.0,'11111222,11111222,99999999' 
TABS,ioos:station:wmo:42050:1,1996-04-03T21:00:00Z,28.8425,-94.2433,2.0,294.3269803,13.73994178,-99999.0,'11111222,11111222,99999999' 
TABS,ioos:station:wmo:42050:1,1996-04-03T21:30:00Z,28.8425,-94.2433,2.0,287.6168731,13.28292137,-99999.0,'11111222,11111222,99999999' 
TABS,ioos:station:wmo:42050:1,1996-04-03T22:00:00Z,28.8425,-94.2433,2.0,278.2321664,13.54960147,-99999.0,'11111222,11111222,99999999' 
TABS,ioos:station:wmo:42050:1,1996-04-03T22:30:00Z,28.8425,-94.2433,2.0,272.6208187,13.12372279,-99999.0,'11111222,11111222,99999999' 
TABS,ioos:station:wmo:42050:1,1996-04-03T23:00:00Z,28.8425,-94.2433,2.0,264.4773365,13.92462567,-99999.0,'11111222,11111222,99999999' 
TABS,ioos:station:wmo:42050:1,1996-04-03T23:30:00Z,28.8425,-94.2433,2.0,265.0922907,13.91099206,-99999.0,'11111222,11111222,99999999' 
TABS,ioos:station:wmo:42050:1,1996-04-04T00:00:00Z,28.8425,-94.2433,2.0,253.6576028,14.28721456,-99999.0,'11111222,11111222,99999999' 
TABS,ioos:station:wmo:42050:1,1996-04-04T00:30:00Z,28.8425,-94.2433,2.0,249.9070626,14.75820111,-99999.0,'11111222,11111222,99999999' 
TABS,ioos:station:wmo:42050:1,1996-04-04T01:00:00Z,28.8425,-94.2433,2.0,247.0791748,15.68867745,-99999.0,'11111222,11111222,99999999' 
TABS,ioos:station:wmo:42050:1,1996-04-04T01:30:00Z,28.8425,-94.2433,2.0,251.1967139,15.26462905,-99999.0,'11111222,11111222,99999999' 
TABS,ioos:station:wmo:42050:1,1996-04-04T02:00:00Z,28.8425,-94.2433,2.0,257.7438731,16.15824867,-99999.0,'11111222,11111222,99999999' 
TABS,ioos:station:wmo:42050:1,1996-04-04T02:30:00Z,28.8425,-94.2433,2.0,266.8038304,15.96482696,-99999.0,'11111222,11111222,99999999' 
TABS,ioos:station:wmo:42050:1,1996-04-04T03:00:00Z,28.8425,-94.2433,2.0,274.8554212,14.06044807,-99999.0,'11111222,11111222,99999999' 
TABS,ioos:station:wmo:42050:1,1996-04-04T03:30:00Z,28.8425,-94.2433,2.0,280.829789,14.26402818,-99999.0,'11111222,11111222,99999999' 
TABS,ioos:station:wmo:42050:1,1996-04-04T04:00:00Z,28.8425,-94.2433,2.0,292.8412622,15.3539604,-99999.0,'11111222,11111222,99999999' 
TABS,ioos:station:wmo:42050:1,1996-04-04T04:30:00Z,28.8425,-94.2433,2.0,301.9939425,15.45794941,-99999.0,'11111222,11111222,99999999' 
TABS,ioos:station:wmo:42050:1,1996-04-04T05:00:00Z,28.8425,-94.2433,2.0,310.0723456,15.96893234,-99999.0,'11111222,11111222,99999999' 
TABS,ioos:station:wmo:42050:1,1996-04-04T05:30:00Z,28.8425,-94.2433,2.0,311.236621,16.05058566,-99999.0,'11111222,11111222,99999999' 
TABS,ioos:station:wmo:42050:1,1996-04-04T06:00:00Z,28.8425,-94.2433,2.0,316.6478666,14.75634779,-99999.0,'11111222,11111222,99999999' 
TABS,ioos:station:wmo:42050:1,1996-04-04T06:30:00Z,28.8425,-94.2433,2.0,322.1708966,14.33200963,-99999.0,'11111222,11111222,99999999' 
TABS,ioos:station:wmo:42050:1,1996-04-04T07:00:00Z,28.8425,-94.2433,2.0,326.9957382,13.67711227,-99999.0,'11111222,11111222,99999999' 
TABS,ioos:station:wmo:42050:1,1996-04-04T07:30:00Z,28.8425,-94.2433,2.0,323.9206949,12.90522762,-99999.0,'11111222,11111222,99999999' 
TABS,ioos:station:wmo:42050:1,1996-04-04T08:00:00Z,28.8425,-94.2433,2.0,327.5102406,11.65403364,-99999.0,'11111222,11111222,99999999' 
TABS,ioos:station:wmo:42050:1,1996-04-04T08:30:00Z,28.8425,-94.2433,2.0,325.3524567,9.955485925,-99999.0,'11133222,11111222,99999999' 
TABS,ioos:station:wmo:42050:1,1996-04-04T09:00:00Z,28.8425,-94.2433,2.0,328.0978339,6.490377493,-99999.0,'11133222,11111222,99999999' 
TABS,ioos:station:wmo:42050:1,1996-04-04T09:30:00Z,28.8425,-94.2433,2.0,322.499908,5.634341133,-99999.0,'11133222,11111222,99999999' 
TABS,ioos:station:wmo:42050:1,1996-04-04T10:00:00Z,28.8425,-94.2433,2.0,304.43146,3.431107693,-99999.0,'11133222,11111222,99999999' 
TABS,ioos:station:wmo:42050:1,1996-04-04T10:30:00Z,28.8425,-94.2433,2.0,304.5701201,2.890328701,-99999.0,'11133222,11111222,99999999' 
TABS,ioos:station:wmo:42050:1,1996-04-04T11:00:00Z,28.8425,-94.2433,2.0,266.6065759,2.53444274,-99999.0,'11133222,11111222,99999999' 
TABS,ioos:station:wmo:42050:1,1996-04-04T11:30:00Z,28.8425,-94.2433,2.0,237.0474879,3.015045605,-99999.0,'11133222,11111222,99999999' 
TABS,ioos:station:wmo:42050:1,1996-04-04T12:00:00Z,28.8425,-94.2433,2.0,242.4411235,3.868979194,-99999.0,'11133222,11111222,99999999' 
TABS,ioos:station:wmo:42050:1,1996-04-04T12:30:00Z,28.8425,-94.2433,2.0,239.7233149,4.145419159,-99999.0,'11133222,11111222,99999999' 
TABS,ioos:station:wmo:42050:1,1996-04-04T13:00:00Z,28.8425,-94.2433,2.0,232.7375058,4.674109541,-99999.0,'11133222,11111222,99999999' 
TABS,ioos:station:wmo:42050:1,1996-04-04T13:30:00Z,28.8425,-94.2433,2.0,231.3023149,4.766424236,-99999.0,'11133222,11111222,99999999' 
TABS,ioos:station:wmo:42050:1,1996-04-04T14:00:00Z,28.8425,-94.2433,2.0,238.1854148,5.083778123,-99999.0,'11133222,11111222,99999999' 
TABS,ioos:station:wmo:42050:1,1996-04-04T14:30:00Z,28.8425,-94.2433,2.0,260.5719511,5.433387525,-99999.0,'11133222,11111222,99999999' 
TABS,ioos:station:wmo:42050:1,1996-04-04T15:00:00Z,28.8425,-94.2433,2.0,270.0004209,5.22,-99999.0,'11133222,11111222,99999999' 
TABS,ioos:station:wmo:42050:1,1996-04-04T15:30:00Z,28.8425,-94.2433,2.0,270.0004209,6.11,-99999.0,'11133222,11111222,99999999' 
TABS,ioos:station:wmo:42050:1,1996-04-04T16:00:00Z,28.8425,-94.2433,2.0,282.4151459,7.628374663,-99999.0,'11133222,11111222,99999999' 